QPF
0.03 0.02 0.02 0.03 0.04 0.04 0.03 0.03 0.02 0.03 0.03 0.03 0.02 0.02 0.03 0.04 0.04 0.02 0.01 0.02 0.02 0.02 0.02 0.01 0.01 0.01 0.01 0.01 0.01 0.01 0.02 0.02 0.03 0.04 0.04 0.03 0.03 0.02 0.02 0.03 0.03 0.03 0.02
0.02 0.02 0.02 0.03 0.04 0.04 0.04 0.05 0.03 0.04 0.04 0.04 0.03 0.04 0.04 0.04 0.04 0.04 0.03 0.02 0.02 0.02 0.02 0.02 0.01 0.01 0.01 0.01 0.01 0.01 0.01 0.01 0.01 0.01 0.01 0.02 0.02 0.01 0.02 0.03 0.03 0.03 0.02
0.04 0.04 0.03 0.03 0.03 0.04 0.04 0.05 0.05 0.06 0.06 0.05 0.05 0.06 0.05 0.03 0.04 0.05 0.04 0.03 0.02 0.01 0.01 0.02 0.01 0.02 0.01 0.01 0.01 0.01 0.01 0.01 0.01 0.01 0.01 0.01 0.01 0.01 0.01 0.02 0.02 0.03 0.02
0.07 0.11 0.10 0.09 0.10 0.12 0.17 0.17 0.14 0.13 0.11 0.08 0.09 0.07 0.07 0.06 0.04 0.04 0.04 0.03 0.02 0.02 0.02 0.01 0.01 0.01 0.01 0.01 0.01 0.01 0.01 0.02 0.03 0.03 0.02 0.02 0.01 0.01 0.01 0.02 0.02 0.02 0.03
0.03 0.05 0.06 0.06 0.07 0.07 0.08 0.09 0.08 0.08 0.07 0.06 0.08 0.09 0.09 0.06 0.03 0.03 0.03 0.03 0.02 0.02 0.02 0.01 0.01 0.01 0.01 0.01 0.01 0.01 0.01 0.01 0.01 0.01 0.02 0.01 0.01 0.01 0.01 0.02 0.02 0.02 0.01
0.03 0.02 0.03 0.02 0.02 0.02 0.02 0.02 0.02 0.02 0.02 0.03 0.07 0.10 0.08 0.05 0.03 0.03 0.04 0.04 0.03 0.02 0.01 0.01 0.01 0.01 0.01 0.01 0.00 0.01 0.01 0.01 0.01 0.01 0.02 0.01 0.01 0.01 0.01 0.02 0.02 0.02 0.01
0.03 0.02 0.01 0.01 0.01 0.01 0.01 0.01 0.01 0.01 0.02 0.02 0.03 0.04 0.04 0.04 0.04 0.03 0.02 0.02 0.02 0.02 0.01 0.01 0.01 0.01 0.01 0.01 0.01 0.01 0.01 0.01 0.01 0.01 0.02 0.02 0.02 0.02 0.03 0.02 0.01 0.01 0.01
0.02 0.01 0.02 0.01 0.01 0.01 0.01 0.01 0.01 0.01 0.01 0.02 0.02 0.02 0.03 0.05 0.05 0.03 0.02 0.02 0.02 0.02 0.01 0.01 0.01 0.01 0.01 0.01 0.01 0.01 0.00 0.00 0.01 0.02 0.02 0.02 0.02 0.02 0.03 0.03 0.03 0.02 0.01
0.02 0.01 0.02 0.01 0.01 0.02 0.01 0.02 0.02 0.02 0.02 0.02 0.02 0.03 0.03 0.02 0.03 0.03 0.02 0.01 0.01 0.01 0.01 0.01 0.01 0.01 0.01 0.01 0.01 0.00 0.00 0.00 0.01 0.02 0.02 0.02 0.02 0.02 0.03 0.04 0.04 0.03 0.02
0.01 0.01 0.02 0.01 0.01 0.02 0.02 0.02 0.02 0.02 0.03 0.03 0.03 0.03 0.02 0.01 0.01 0.01 0.02 0.01 0.02 0.03 0.02 0.02 0.01 0.01 0.01 0.01 0.01 0.01 0.01 0.00 0.01 0.01 0.01 0.01 0.01 0.02 0.02 0.02 0.02 0.02 0.01
0.02 0.02 0.03 0.03 0.02 0.02 0.02 0.02 0.02 0.03 0.03 0.03 0.03 0.03 0.03 0.02 0.02 0.01 0.01 0.02 0.03 0.03 0.02 0.01 0.01 0.01 0.01 0.01 0.01 0.00 0.01 0.01 0.01 0.01 0.01 0.01 0.01 0.01 0.02 0.02 0.02 0.02 0.01
0.02 0.02 0.03 0.02 0.02 0.02 0.01 0.01 0.02 0.03 0.04 0.03 0.03 0.03 0.03 0.03 0.04 0.03 0.03 0.03 0.02 0.01 0.01 0.01 0.01 0.01 0.01 0.01 0.01 0.00 0.01 0.01 0.01 0.01 0.01 0.01 0.01 0.02 0.02 0.02 0.02 0.02 0.02
0.02 0.03 0.03 0.03 0.02 0.02 0.01 0.02 0.02 0.03 0.04 0.04 0.04 0.04 0.03 0.04 0.04 0.05 0.04 0.03 0.02 0.01 0.01 0.01 0.01 0.01 0.01 0.01 0.01 0.01 0.00 0.01 0.01 0.01 0.01 0.01 0.01 0.01 0.02 0.02 0.02 0.02 0.03
0.02 0.04 0.06 0.05 0.04 0.03 0.02 0.02 0.03 0.03 0.03 0.03 0.04 0.03 0.03 0.04 0.03 0.03 0.04 0.03 0.02 0.02 0.02 0.01 0.01 0.01 0.01 0.00 0.00 0.00 0.00 0.00 0.01 0.01 0.01 0.01 0.02 0.02 0.01 0.02 0.02 0.03 0.03
0.02 0.03 0.05 0.04 0.03 0.03 0.04 0.04 0.05 0.03 0.02 0.02 0.02 0.02 0.03 0.03 0.03 0.04 0.03 0.03 0.02 0.02 0.01 0.01 0.01 0.01 0.01 0.01 0.01 0.00 0.00 0.00 0.00 0.00 0.00 0.01 0.01 0.01 0.02 0.02 0.03 0.03 0.03
0.01 0.01 0.01 0.01 0.01 0.02 0.03 0.03 0.04 0.04 0.02 0.02 0.02 0.02 0.02 0.02 0.03 0.04 0.03 0.03 0.02 0.02 0.02 0.01 0.01 0.01 0.01 0.01 0.01 0.01 0.01 0.01 0.01 0.01 0.01 0.02 0.03 0.03 0.03 0.03 0.03 0.02 0.02
0.01 0.00 0.00 0.00 0.01 0.01 0.02 0.02 0.03 0.02 0.01 0.01 0.01 0.02 0.02 0.02 0.02 0.02 0.03 0.03 0.03 0.03 0.02 0.01 0.01 0.01 0.01 0.01 0.01 0.01 0.01 0.02 0.01 0.01 0.02 0.02 0.02 0.03 0.03 0.02 0.03 0.03 0.03
0.01 0.01 0.01 0.00 0.00 0.01 0.01 0.01 0.01 0.02 0.02 0.02 0.01 0.01 0.01 0.01 0.02 0.02 0.03 0.03 0.02 0.03 0.02 0.01 0.01 0.01 0.01 0.01 0.01 0.01 0.02 0.02 0.02 0.02 0.02 0.02 0.02 0.02 0.02 0.02 0.02 0.02 0.02
0.01 0.00 0.00 0.00 0.00 0.01 0.01 0.01 0.01 0.01 0.01 0.01 0.01 0.01 0.01 0.02 0.02 0.02 0.02 0.02 0.01 0.02 0.02 0.01 0.01 0.01 0.01 0.01 0.01 0.02 0.02 0.02 0.02 0.01 0.01 0.01 0.01 0.01 0.02 0.02 0.02 0.02 0.02
0.01 0.01 0.01 0.01 0.01 0.01 0.02 0.01 0.01 0.01 0.01 0.02 0.02 0.03 0.03 0.03 0.02 0.02 0.01 0.01 0.01 0.02 0.01 0.01 0.01 0.01 0.02 0.02 0.02 0.01 0.01 0.01 0.01 0.01 0.01 0.01 0.01 0.01 0.01 0.02 0.02 0.02 0.02
0.01 0.01 0.01 0.01 0.02 0.01 0.01 0.02 0.01 0.01 0.02 0.02 0.03 0.04 0.05 0.03 0.02 0.02 0.02 0.02 0.02 0.02 0.02 0.02 0.01 0.01 0.01 0.01 0.01 0.00 0.01 0.01 0.01 0.01 0.01 0.02 0.02 0.02 0.02 0.02 0.01 0.01 0.01
0.02 0.01 0.01 0.02 0.02 0.02 0.02 0.02 0.02 0.02 0.02 0.02 0.02 0.03 0.03 0.03 0.03 0.03 0.02 0.02 0.02 0.01 0.01 0.01 0.01 0.01 0.00 0.01 0.01 0.01 0.01 0.01 0.01 0.01 0.01 0.01 0.01 0.01 0.01 0.01 0.01 0.01 0.01
0.03 0.03 0.03 0.03 0.03 0.03 0.03 0.03 0.03 0.03 0.02 0.02 0.02 0.02 0.02 0.02 0.02 0.02 0.02 0.02 0.02 0.02 0.02 0.01 0.01 0.01 0.01 0.00 0.00 0.01 0.01 0.01 0.01 0.01 0.01 0.01 0.01 0.01 0.01 0.01 0.01 0.01 0.01
0.04 0.04 0.04 0.04 0.05 0.05 0.04 0.03 0.02 0.01 0.01 0.01 0.01 0.02 0.03 0.03 0.03 0.02 0.02 0.02 0.03 0.02 0.02 0.02 0.01 0.01 0.01 0.00 0.00 0.01 0.01 0.00 0.00 0.00 0.01 0.01 0.01 0.01 0.01 0.01 0.01 0.01 0.01
0.06 0.06 0.07 0.06 0.04 0.03 0.02 0.01 0.01 0.01 0.01 0.00 0.01 0.01 0.01 0.02 0.02 0.02 0.02 0.03 0.03 0.02 0.02 0.01 0.02 0.02 0.02 0.01 0.00 0.01 0.01 0.01 0.01 0.01 0.01 0.01 0.01 0.01 0.01 0.01 0.01 0.01 0.01
0.03 0.05 0.07 0.07 0.04 0.03 0.02 0.01 0.01 0.01 0.01 0.01 0.01 0.01 0.01 0.01 0.01 0.01 0.01 0.03 0.04 0.03 0.03 0.03 0.03 0.02 0.02 0.02 0.01 0.01 0.01 0.01 0.01 0.01 0.01 0.01 0.01 0.01 0.01 0.01 0.01 0.00 0.00
MSLP
1013.00 1012.99 1013.01 1013.00 1012.94 1012.82 1012.63 1012.39 1012.13 1011.87 1011.63 1011.40 1011.18 1010.93 1010.63 1010.26 1009.79 1009.24 1008.61 1007.94 1007.26 1006.60 1006.00 1005.45 1004.99 1004.61 1004.32 1004.11 1003.97 1003.92 1003.94 1004.04 1004.22 1004.45 1004.72 1005.03 1005.33 1005.64 1005.93 1006.22 1006.50 1006.80 1007.12
1012.80 1012.76 1012.75 1012.73 1012.67 1012.55 1012.38 1012.17 1011.94 1011.72 1011.51 1011.32 1011.13 1010.93 1010.70 1010.40 1010.03 1009.58 1009.07 1008.51 1007.93 1007.36 1006.80 1006.29 1005.83 1005.42 1005.09 1004.82 1004.63 1004.53 1004.51 1004.59 1004.75 1004.98 1005.27 1005.60 1005.93 1006.26 1006.57 1006.86 1007.14 1007.41 1007.69
1012.65 1012.60 1012.57 1012.54 1012.48 1012.37 1012.21 1012.02 1011.81 1011.61 1011.42 1011.25 1011.09 1010.93 1010.74 1010.50 1010.21 1009.85 1009.45 1009.00 1008.53 1008.05 1007.58 1007.12 1006.70 1006.32 1005.97 1005.68 1005.46 1005.31 1005.25 1005.29 1005.41 1005.61 1005.88 1006.18 1006.51 1006.83 1007.13 1007.40 1007.65 1007.88 1008.12
1012.59 1012.54 1012.51 1012.48 1012.41 1012.30 1012.15 1011.97 1011.77 1011.58 1011.41 1011.25 1011.10 1010.95 1010.78 1010.58 1010.33 1010.05 1009.72 1009.37 1009.00 1008.62 1008.24 1007.87 1007.52 1007.18 1006.86 1006.58 1006.35 1006.17 1006.07 1006.05 1006.11 1006.25 1006.47 1006.72 1007.00 1007.28 1007.55 1007.78 1008.00 1008.19 1008.37
1012.63 1012.59 1012.56 1012.52 1012.45 1012.34 1012.19 1012.02 1011.83 1011.65 1011.47 1011.32 1011.17 1011.01 1010.85 1010.66 1010.44 1010.19 1009.92 1009.63 1009.34 1009.04 1008.76 1008.48 1008.20 1007.92 1007.66 1007.40 1007.17 1006.98 1006.84 1006.76 1006.76 1006.84 1006.97 1007.16 1007.37 1007.59 1007.81 1008.01 1008.18 1008.33 1008.47
1012.74 1012.72 1012.69 1012.64 1012.56 1012.44 1012.29 1012.12 1011.94 1011.77 1011.61 1011.46 1011.31 1011.15 1010.98 1010.78 1010.56 1010.32 1010.07 1009.82 1009.58 1009.34 1009.12 1008.92 1008.71 1008.50 1008.29 1008.07 1007.86 1007.66 1007.49 1007.37 1007.30 1007.30 1007.36 1007.47 1007.62 1007.78 1007.95 1008.10 1008.24 1008.36 1008.46
1012.89 1012.86 1012.82 1012.76 1012.66 1012.53 1012.38 1012.23 1012.07 1011.92 1011.78 1011.65 1011.51 1011.36 1011.18 1010.97 1010.74 1010.49 1010.24 1009.99 1009.76 1009.56 1009.38 1009.22 1009.07 1008.91 1008.75 1008.56 1008.37 1008.17 1007.99 1007.83 1007.71 1007.64 1007.64 1007.68 1007.76 1007.87 1008.00 1008.12 1008.23 1008.33 1008.40
1013.00 1012.96 1012.89 1012.80 1012.69 1012.55 1012.41 1012.28 1012.16 1012.05 1011.95 1011.86 1011.75 1011.62 1011.45 1011.24 1011.00 1010.73 1010.46 1010.20 1009.96 1009.75 1009.58 1009.44 1009.31 1009.19 1009.05 1008.90 1008.72 1008.53 1008.33 1008.15 1008.00 1007.89 1007.83 1007.82 1007.85 1007.92 1008.01 1008.11 1008.20 1008.28 1008.34
1013.04 1012.97 1012.87 1012.75 1012.62 1012.48 1012.36 1012.25 1012.18 1012.13 1012.10 1012.06 1012.01 1011.91 1011.77 1011.57 1011.32 1011.04 1010.75 1010.46 1010.19 1009.97 1009.78 1009.63 1009.51 1009.39 1009.27 1009.13 1008.96 1008.78 1008.59 1008.40 1008.22 1008.08 1007.99 1007.94 1007.94 1007.97 1008.03 1008.11 1008.18 1008.24 1008.28
1013.00 1012.90 1012.77 1012.62 1012.48 1012.34 1012.24 1012.18 1012.16 1012.18 1012.21 1012.25 1012.25 1012.21 1012.10 1011.93 1011.69 1011.40 1011.09 1010.77 1010.48 1010.23 1010.01 1009.84 1009.70 1009.58 1009.46 1009.32 1009.16 1008.99 1008.80 1008.60 1008.42 1008.26 1008.14 1008.07 1008.03 1008.03 1008.06 1008.10 1008.14 1008.18 1008.20
1012.92 1012.79 1012.64 1012.47 1012.32 1012.20 1012.12 1012.10 1012.14 1012.22 1012.32 1012.42 1012.48 1012.49 1012.42 1012.27 1012.04 1011.76 1011.44 1011.11 1010.79 1010.51 1010.28 1010.08 1009.92 1009.78 1009.65 1009.52 1009.36 1009.19 1009.00 1008.81 1008.62 1008.45 1008.31 1008.20 1008.13 1008.09 1008.07 1008.07 1008.07 1008.06 1008.04
1012.86 1012.71 1012.55 1012.38 1012.23 1012.13 1012.08 1012.09 1012.17 1012.30 1012.44 1012.58 1012.68 1012.73 1012.68 1012.56 1012.35 1012.07 1011.75 1011.42 1011.10 1010.80 1010.55 1010.34 1010.16 1010.01 1009.87 1009.73 1009.57 1009.40 1009.22 1009.02 1008.83 1008.64 1008.48 1008.33 1008.21 1008.12 1008.03 1007.96 1007.90 1007.84 1007.77
1012.86 1012.72 1012.56 1012.41 1012.28 1012.19 1012.17 1012.21 1012.31 1012.45 1012.61 1012.76 1012.87 1012.91 1012.88 1012.76 1012.56 1012.30 1011.99 1011.67 1011.35 1011.06 1010.80 1010.59 1010.41 1010.25 1010.10 1009.96 1009.80 1009.62 1009.43 1009.23 1009.02 1008.81 1008.61 1008.42 1008.25 1008.08 1007.92 1007.77 1007.63 1007.50 1007.37
1012.95 1012.83 1012.70 1012.57 1012.47 1012.41 1012.40 1012.45 1012.55 1012.68 1012.82 1012.94 1013.03 1013.05 1012.99 1012.86 1012.67 1012.41 1012.12 1011.82 1011.52 1011.25 1011.02 1010.81 1010.63 1010.48 1010.33 1010.17 1010.01 1009.83 1009.63 1009.41 1009.18 1008.94 1008.70 1008.45 1008.21 1007.97 1007.73 1007.50 1007.27 1007.06 1006.87
1013.09 1013.01 1012.92 1012.84 1012.78 1012.75 1012.75 1012.80 1012.88 1012.97 1013.06 1013.13 1013.16 1013.13 1013.04 1012.88 1012.68 1012.43 1012.16 1011.89 1011.62 1011.39 1011.18 1010.99 1010.83 1010.68 1010.53 1010.37 1010.20 1010.00 1009.78 1009.54 1009.28 1009.01 1008.72 1008.42 1008.12 1007.80 1007.49 1007.17 1006.87 1006.60 1006.35
1013.23 1013.20 1013.16 1013.13 1013.11 1013.11 1013.13 1013.16 1013.21 1013.26 1013.29 1013.30 1013.26 1013.16 1013.03 1012.84 1012.62 1012.38 1012.14 1011.90 1011.67 1011.48 1011.30 1011.14 1011.00 1010.86 1010.71 1010.54 1010.34 1010.13 1009.88 1009.62 1009.33 1009.02 1008.69 1008.35 1007.99 1007.62 1007.24 1006.87 1006.51 1006.18 1005.90
1013.28 1013.30 1013.32 1013.33 1013.36 1013.39 1013.43 1013.47 1013.49 1013.50 1013.48 1013.42 1013.32 1013.17 1012.99 1012.78 1012.55 1012.32 1012.10 1011.90 1011.72 1011.56 1011.42 1011.29 1011.16 1011.02 1010.86 1010.68 1010.47 1010.23 1009.96 1009.66 1009.34 1009.00 1008.64 1008.26 1007.86 1007.46 1007.05 1006.64 1006.26 1005.90 1005.61
1013.21 1013.26 1013.32 1013.39 1013.46 1013.52 1013.59 1013.64 1013.66 1013.64 1013.59 1013.49 1013.35 1013.17 1012.96 1012.74 1012.52 1012.30 1012.11 1011.94 1011.80 1011.68 1011.57 1011.46 1011.34 1011.19 1011.02 1010.82 1010.58 1010.31 1010.01 1009.69 1009.34 1008.98 1008.60 1008.20 1007.79 1007.37 1006.95 1006.54 1006.15 1005.80 1005.51
1012.99 1013.07 1013.16 1013.26 1013.37 1013.48 1013.58 1013.66 1013.69 1013.68 1013.62 1013.52 1013.36 1013.17 1012.96 1012.75 1012.54 1012.35 1012.19 1012.05 1011.94 1011.85 1011.76 1011.66 1011.54 1011.39 1011.20 1010.97 1010.70 1010.40 1010.08 1009.72 1009.36 1008.98 1008.58 1008.18 1007.77 1007.36 1006.95 1006.56 1006.19 1005.86 1005.59
1012.67 1012.76 1012.87 1013.00 1013.15 1013.31 1013.44 1013.56 1013.63 1013.64 1013.61 1013.52 1013.38 1013.21 1013.02 1012.83 1012.65 1012.48 1012.35 1012.24 1012.15 1012.07 1011.99 1011.89 1011.76 1011.60 1011.39 1011.13 1010.84 1010.51 1010.16 1009.78 1009.40 1009.01 1008.61 1008.21 1007.82 1007.42 1007.04 1006.68 1006.34 1006.04 1005.81
1012.32 1012.41 1012.53 1012.69 1012.88 1013.07 1013.25 1013.41 1013.52 1013.58 1013.59 1013.54 1013.44 1013.30 1013.14 1012.98 1012.83 1012.69 1012.58 1012.48 1012.41 1012.33 1012.25 1012.14 1012.00 1011.81 1011.58 1011.30 1010.98 1010.63 1010.25 1009.86 1009.46 1009.06 1008.67 1008.27 1007.89 1007.52 1007.16 1006.83 1006.53 1006.27 1006.07
1012.02 1012.11 1012.25 1012.43 1012.64 1012.86 1013.09 1013.29 1013.45 1013.56 1013.61 1013.60 1013.54 1013.44 1013.32 1013.19 1013.05 1012.94 1012.83 1012.75 1012.67 1012.59 1012.49 1012.37 1012.21 1012.01 1011.76 1011.46 1011.12 1010.75 1010.36 1009.95 1009.54 1009.13 1008.72 1008.33 1007.96 1007.60 1007.26 1006.96 1006.69 1006.47 1006.31
1011.82 1011.93 1012.08 1012.27 1012.51 1012.76 1013.01 1013.25 1013.44 1013.59 1013.68 1013.71 1013.69 1013.62 1013.53 1013.41 1013.30 1013.18 1013.08 1012.99 1012.90 1012.81 1012.70 1012.56 1012.39 1012.17 1011.91 1011.60 1011.25 1010.87 1010.46 1010.04 1009.61 1009.18 1008.76 1008.36 1007.98 1007.63 1007.31 1007.02 1006.78 1006.60 1006.47
1011.72 1011.84 1012.02 1012.23 1012.48 1012.76 1013.03 1013.28 1013.51 1013.68 1013.80 1013.86 1013.86 1013.81 1013.73 1013.63 1013.52 1013.40 1013.29 1013.19 1013.08 1012.98 1012.85 1012.70 1012.52 1012.30 1012.03 1011.72 1011.36 1010.97 1010.55 1010.11 1009.66 1009.21 1008.77 1008.36 1007.96 1007.60 1007.28 1007.01 1006.79 1006.63 1006.54
1011.63 1011.80 1012.00 1012.24 1012.51 1012.79 1013.07 1013.34 1013.58 1013.77 1013.90 1013.98 1014.00 1013.97 1013.90 1013.81 1013.69 1013.58 1013.46 1013.34 1013.22 1013.10 1012.97 1012.81 1012.62 1012.40 1012.13 1011.82 1011.46 1011.06 1010.63 1010.17 1009.70 1009.23 1008.76 1008.31 1007.90 1007.52 1007.20 1006.93 1006.74 1006.61 1006.56
1011.47 1011.68 1011.92 1012.18 1012.46 1012.76 1013.05 1013.33 1013.57 1013.78 1013.93 1014.03 1014.07 1014.06 1014.00 1013.92 1013.82 1013.70 1013.58 1013.46 1013.34 1013.21 1013.07 1012.91 1012.72 1012.50 1012.23 1011.92 1011.56 1011.15 1010.70 1010.23 1009.73 1009.23 1008.73 1008.26 1007.82 1007.43 1007.10 1006.85 1006.67 1006.58 1006.57
Thickness
5704 5702 5700 5698 5697 5696 5694 5692 5690 5688 5686 5684 5681 5679 5677 5675 5673 5671 5669 5668 5666 5663 5661 5658 5656 5655 5653 5652 5650 5648 5645 5642 5639 5640 5642 5643 5643 5642 5642 5641 5641 5641 5641
5702 5699 5697 5695 5694 5692 5690 5689 5687 5684 5683 5680 5678 5675 5673 5671 5669 5667 5666 5665 5662 5660 5658 5655 5653 5652 5649 5648 5646 5644 5641 5639 5636 5634 5635 5636 5637 5637 5636 5635 5635 5636 5635
5698 5695 5692 5690 5689 5688 5687 5685 5683 5681 5678 5676 5674 5671 5668 5666 5665 5664 5664 5662 5660 5658 5655 5653 5651 5648 5646 5644 5642 5640 5638 5636 5633 5630 5629 5630 5630 5630 5629 5629 5629 5628 5629
5693 5690 5688 5686 5685 5684 5683 5681 5679 5677 5675 5673 5671 5668 5665 5663 5662 5661 5661 5658 5656 5654 5652 5650 5648 5646 5643 5641 5639 5636 5634 5631 5628 5626 5624 5623 5622 5623 5622 5620 5620 5620 5621
5688 5685 5684 5683 5682 5681 5679 5677 5675 5673 5672 5670 5667 5665 5663 5661 5660 5658 5656 5654 5651 5649 5647 5646 5645 5643 5641 5638 5636 5632 5629 5626 5623 5620 5618 5617 5616 5615 5614 5614 5613 5613 5613
5684 5682 5681 5679 5678 5676 5674 5673 5671 5669 5668 5665 5663 5661 5659 5658 5657 5655 5652 5649 5647 5644 5642 5641 5640 5638 5637 5635 5632 5630 5626 5622 5618 5615 5613 5611 5612 5611 5610 5609 5606 5605 5605
5680 5679 5677 5676 5674 5672 5671 5669 5666 5665 5663 5661 5659 5657 5654 5654 5653 5651 5649 5645 5643 5640 5637 5635 5634 5633 5631 5629 5626 5625 5622 5620 5618 5613 5610 5608 5608 5608 5606 5604 5602 5601 5601
5676 5674 5673 5671 5670 5668 5667 5665 5663 5661 5659 5657 5655 5653 5651 5650 5649 5647 5645 5641 5638 5636 5634 5631 5628 5626 5625 5623 5620 5618 5616 5615 5613 5610 5608 5607 5607 5606 5603 5602 5600 5598 5598
5672 5670 5669 5668 5666 5664 5662 5660 5659 5657 5655 5654 5652 5650 5648 5646 5645 5643 5640 5636 5633 5631 5630 5628 5625 5623 5621 5618 5614 5611 5610 5610 5610 5608 5606 5604 5604 5603 5600 5597 5594 5591 5590
5670 5669 5667 5666 5663 5661 5659 5657 5656 5654 5652 5650 5648 5647 5645 5643 5642 5639 5636 5632 5629 5627 5625 5623 5622 5619 5616 5613 5609 5606 5604 5604 5604 5603 5601 5600 5599 5598 5597 5594 5592 5588 5586
5669 5666 5665 5663 5661 5659 5656 5654 5652 5650 5648 5645 5643 5642 5641 5639 5637 5635 5632 5628 5625 5622 5620 5618 5617 5615 5612 5609 5606 5603 5601 5600 5598 5596 5595 5594 5594 5593 5592 5591 5590 5587 5584
5665 5662 5660 5658 5657 5656 5651 5649 5647 5645 5642 5640 5638 5636 5635 5634 5632 5630 5627 5624 5621 5618 5615 5614 5612 5611 5608 5606 5603 5601 5599 5596 5593 5591 5590 5589 5589 5588 5589 5588 5587 5586 5585
5659 5656 5654 5653 5651 5650 5647 5644 5641 5639 5636 5635 5632 5630 5629 5629 5627 5625 5622 5619 5617 5613 5612 5611 5609 5606 5604 5601 5600 5598 5595 5591 5589 5587 5586 5586 5586 5585 5584 5583 5583 5582 5581
5653 5651 5650 5647 5645 5644 5642 5639 5636 5633 5631 5629 5627 5625 5624 5622 5621 5619 5616 5613 5611 5609 5606 5605 5603 5601 5598 5597 5595 5593 5591 5588 5586 5584 5583 5583 5582 5581 5579 5578 5576 5575 5573
5648 5646 5644 5643 5640 5637 5635 5633 5632 5630 5629 5625 5623 5621 5619 5617 5617 5615 5611 5608 5606 5603 5601 5598 5595 5593 5591 5591 5589 5588 5587 5584 5582 5580 5579 5578 5577 5575 5574 5572 5570 5568 5566
5642 5640 5638 5636 5634 5631 5628 5626 5626 5625 5624 5623 5621 5618 5617 5615 5614 5610 5608 5605 5603 5600 5596 5592 5590 5588 5587 5586 5584 5584 5582 5580 5579 5577 5575 5573 5571 5569 5567 5566 5564 5562 5561
5637 5635 5633 5631 5628 5626 5624 5621 5618 5618 5618 5617 5616 5614 5613 5611 5609 5606 5603 5600 5597 5594 5590 5588 5586 5584 5583 5582 5580 5579 5577 5576 5575 5572 5570 5568 5566 5564 5562 5560 5558 5557 5556
5633 5631 5629 5626 5624 5622 5620 5617 5615 5613 5611 5611 5611 5610 5608 5606 5604 5601 5598 5594 5590 5588 5586 5584 5582 5581 5579 5578 5576 5574 5573 5571 5568 5566 5565 5563 5561 5559 5557 5555 5553 5552 5551
5627 5625 5624 5622 5620 5618 5615 5613 5611 5609 5607 5606 5604 5604 5602 5600 5598 5595 5592 5589 5587 5585 5583 5581 5580 5578 5577 5575 5573 5571 5568 5566 5563 5561 5559 5557 5555 5553 5551 5550 5548 5547 5545
5622 5622 5620 5617 5615 5613 5611 5609 5606 5604 5602 5601 5600 5598 5596 5593 5591 5589 5586 5585 5583 5582 5580 5578 5577 5575 5573 5571 5569 5566 5563 5561 5559 5556 5554 5552 5550 5548 5546 5544 5542 5541 5540
5617 5616 5615 5612 5610 5609 5607 5605 5603 5601 5598 5597 5596 5596 5593 5590 5588 5586 5583 5581 5580 5578 5577 5575 5573 5571 5569 5567 5564 5561 5559 5556 5553 5551 5549 5547 5545 5542 5541 5539 5537 5535 5535
5612 5611 5610 5608 5606 5605 5603 5601 5600 5598 5596 5594 5592 5591 5588 5586 5584 5582 5580 5579 5578 5576 5574 5572 5569 5567 5565 5562 5559 5556 5553 5550 5548 5546 5544 5542 5539 5537 5535 5533 5531 5530 5528
5608 5606 5605 5603 5602 5601 5599 5597 5595 5593 5592 5590 5589 5586 5583 5580 5579 5578 5577 5576 5574 5573 5571 5568 5565 5563 5560 5558 5555 5552 5548 5546 5544 5541 5539 5537 5535 5532 5530 5528 5526 5524 5523
5602 5601 5600 5598 5597 5595 5594 5592 5591 5589 5588 5586 5584 5582 5579 5577 5576 5575 5574 5572 5570 5568 5566 5564 5561 5558 5555 5552 5550 5547 5544 5542 5539 5537 5534 5532 5530 5528 5525 5523 5522 5520 5518
5596 5595 5594 5592 5591 5590 5589 5587 5586 5584 5583 5581 5579 5577 5576 5574 5572 5571 5569 5568 5566 5564 5561 5559 5555 5552 5550 5547 5544 5542 5539 5537 5534 5532 5529 5527 5525 5523 5521 5519 5518 5516 5514
5590 5589 5588 5587 5586 5585 5583 5582 5581 5580 5578 5577 5575 5573 5571 5569 5567 5566 5564 5563 5560 5557 5555 5552 5549 5546 5544 5541 5538 5535 5533 5531 5528 5526 5524 5522 5520 5519 5517 5515 5514 5512 5510